Content
SEND FEEDBACK

Daily
Averages
Monthly
Summary
United States of America

NEW YORK - CENTRAL PARK, NEW YORK


Home > North America > United States > New York
Elevation: 14 feet     Latitude: 40 47N     Longitude: 073 58W

WEATHER
 
SELECT A DAY
Number of Records: 148,109;   Date Range: 11/1/95 - 7/29/14
 
SHARE

PRINT THIS DATA

[ ← Previous Day ]
WEATHER ALMANAC - JANUARY 25, 2013
[ Next Day → ]
[ °C ]   °F
Weather ElementAverageHighLow
Temperature18.5 °F23 °F (2:51 pm)12.9 °F (2:51 am)
Dewpoint8.4 °F17.1 °F (6:35 pm)-2 °F (1:51 am)
Humidity66.4 %89 % (6:35 pm)40 % (2:51 pm)
Barometer30.22 in30.42 in (1:51 am)30.06 in (10:51 pm)
Wind Speed6 mph11.5 mph (4:51 am)
Wind Gust20.7 mph (5:51 am)
Weather ElementAverage
Visibility6.3 mi
Wind DirectionSSW (197.5 °)

Weather ElementTotal
Precipitation0.20 in
Heating Degree Days47.1 (Base 65)
Averaged from 36 records on January 25, 2013
WEATHER CONDITIONS BREAKOUT
WIND DIRECTION BREAKOUT
WEATHER BY HOUR - JANUARY 25, 2013
[ °C ]   °F
Local TimeTemperatureDewpointHumidityBarometerVisibilityWind DirectionWind SpeedGust SpeedPrecipitationEventsConditions
1:51 AM14.0 °F-2.0 °F49 %30.42 in10.0 miVariable3.5 mphClear
2:51 AM12.9 °F-0.9 °F54 %30.40 in10.0 miWNW (300°)8.1 mphClear
3:51 AM12.9 °F0.0 °F56 %30.40 in10.0 miWNW (290°)8.1 mphClear
4:51 AM12.9 °F0.0 °F56 %30.41 in10.0 miWNW (290°)11.5 mph17.3 mphClear
5:51 AM12.9 °F0.0 °F56 %30.40 in10.0 miWest (280°)11.5 mph20.7 mphClear
6:51 AM12.9 °F1.0 °F59 %30.41 in10.0 miVariable4.6 mphClear
7:51 AM14.0 °F1.0 °F56 %30.39 in10.0 miNW (310°)8.1 mphClear
8:51 AM15.1 °F1.0 °F54 %30.39 in10.0 miVariable6.9 mphClear
9:51 AM16.0 °F1.9 °F54 %30.41 in10.0 miWNW (300°)6.9 mphClear
10:51 AM18.0 °F1.9 °F50 %30.39 in10.0 miWest (280°)4.6 mphClear
11:51 AM19.0 °F1.9 °F47 %30.32 in10.0 miNW (320°)4.6 mphClear
12:51 PM19.9 °F1.9 °F46 %30.29 in10.0 miWest (270°)3.5 mphClear
1:51 PM21.9 °F1.9 °F42 %30.25 in10.0 miWNW (300°)4.6 mphPartly Cloudy
2:51 PM23.0 °F1.9 °F40 %30.22 in10.0 miWNW (300°)3.5 mphOvercast
3:51 PM23.0 °F3.9 °F44 %30.20 in10.0 miWNW (290°)4.6 mphOvercast
4:51 PM23.0 °F3.9 °F44 %30.19 in10.0 miWest (280°)8.1 mphOvercast
5:04 PM21.9 °F8.1 °F55 %30.20 in2.0 miWSW (250°)11.5 mph19.6 mph0.00 inSnowLight Snow
5:11 PM21.0 °F10.0 °F63 %30.20 in1.0 miWest (260°)9.2 mph19.6 mph0.00 inSnowLight Snow
5:51 PM19.9 °F15.1 °F81 %30.15 in1.0 miWest (260°)5.8 mph0.01 inSnowLight Snow
5:56 PM19.9 °F15.1 °F81 %30.16 in0.8 miCalm0.00 inSnowLight Snow
6:35 PM19.9 °F17.1 °F89 %30.15 in1.2 miCalm0.03 inSnowLight Snow
6:48 PM19.4 °F15.8 °F86 %30.14 in2.0 miWNW (290°)5.8 mph0.03 inSnowLight Snow
6:51 PM19.9 °F15.1 °F81 %30.13 in2.0 miWNW (290°)6.9 mph0.03 inSnowLight Snow
7:04 PM21.0 °F16.0 °F81 %30.14 in2.0 miWNW (300°)4.6 mph0.00 inSnowLight Snow
7:12 PM19.9 °F16.0 °F85 %30.14 in1.2 miWest (260°)8.1 mph0.01 inSnowLight Snow
7:51 PM19.9 °F15.1 °F81 %30.12 in1.2 miWest (260°)6.9 mph0.01 inSnowLight Snow
7:59 PM19.9 °F15.1 °F81 %30.13 in0.8 miVariable4.6 mph0.01 inSnowLight Snow
8:15 PM19.9 °F16.0 °F85 %30.13 in1.0 miVariable4.6 mph0.01 inSnowLight Snow
8:41 PM19.9 °F15.1 °F81 %30.13 in2.5 miVariable3.5 mph0.02 inSnowLight Snow
8:46 PM19.4 °F15.8 °F86 %30.13 in2.5 miWest (260°)6.9 mph0.02 inSnowLight Snow
8:51 PM19.9 °F15.1 °F81 %30.11 in2.5 miCalm0.02 inSnowLight Snow
9:10 PM19.0 °F14.0 °F81 %30.11 in3.0 miNorth0.00 inSnowLight Snow
9:51 PM19.0 °F12.9 °F77 %30.08 in10.0 miWNW (290°)9.2 mph0.00 inMostly Cloudy
10:12 PM18.0 °F12.0 °F78 %30.09 in10.0 miNorthScattered Clouds
10:51 PM19.0 °F12.0 °F74 %30.06 in10.0 miWNW (290°)5.8 mphPartly Cloudy
11:51 PM18.0 °F12.0 °F78 %30.07 in10.0 miWNW (290°)9.2 mphClear
Hourly data recorded from KNYC, located miles away from New York - Central Park, New York







STORIES FROM OUR PARTNERS